BAW49 EGLL-KSEA

Flight info

Callsign BAW49
Flight time N/A
Altitude 34000
Route UMLAT T418 WELIN T420 TNT UN57 POL UN601 RIBEL DCT ASLIB DCT ERAKA/M084F340 DCT 62N020W 65N030W 67N040W 68N050W DCT DARUB/N0483F360 DCT 67N070W 66N080W 64N090W 61N100W DCT YSF DCT YMM/N0485F380 J527 YZU DCT ENDBY DCT YDC DCT JAKSN GLASR3
Aircraft B77W/H-SDE1E2E3FGHIJ2J3J4J5M1RWXY/LB1D1

Departure

Time 2026-05-04 09:39
Airport London Heathrow Airport (EGLL)

Arrival

Time N/A
Airport Seattle–Tacoma International Airport (KSEA)
Time Latitude Longitude Altitude Speed Heading
2026-05-04 08:37 51.47247 -0.48241 95 ft 0 kts 89°
2026-05-04 09:23 51.47247 -0.48242 91 ft 2 kts 89°
2026-05-04 09:23 51.47247 -0.48282 92 ft 4 kts 89°
2026-05-04 09:23 51.47248 -0.48317 92 ft 4 kts 105°
2026-05-04 09:25 51.47301 -0.48361 91 ft 0 kts 179°
2026-05-04 09:27 51.47297 -0.48361 91 ft 2 kts 179°
2026-05-04 09:27 51.47260 -0.48361 95 ft 7 kts 179°
2026-05-04 09:28 51.47212 -0.48360 91 ft 8 kts 180°
2026-05-04 09:28 51.47150 -0.48360 91 ft 10 kts 180°
2026-05-04 09:28 51.47072 -0.48359 93 ft 12 kts 179°
2026-05-04 09:28 51.46988 -0.48358 94 ft 12 kts 180°
2026-05-04 09:29 51.46905 -0.48357 94 ft 12 kts 180°
2026-05-04 09:29 51.46821 -0.48357 94 ft 12 kts 180°
2026-05-04 09:29 51.46752 -0.48310 95 ft 10 kts 112°
2026-05-04 09:29 51.46709 -0.48229 92 ft 10 kts 160°
2026-05-04 09:30 51.46659 -0.48162 96 ft 10 kts 109°
2026-05-04 09:30 51.46653 -0.48051 92 ft 10 kts 90°
2026-05-04 09:30 51.46653 -0.47938 91 ft 10 kts 90°
2026-05-04 09:30 51.46654 -0.47826 91 ft 10 kts 90°
2026-05-04 09:31 51.46654 -0.47689 91 ft 14 kts 90°
2026-05-04 09:31 51.46655 -0.47509 94 ft 18 kts 90°
2026-05-04 09:31 51.46655 -0.47289 94 ft 21 kts 89°
2026-05-04 09:31 51.46656 -0.47053 95 ft 21 kts 89°
2026-05-04 09:32 51.46657 -0.46817 95 ft 21 kts 90°
2026-05-04 09:32 51.46657 -0.46582 95 ft 21 kts 90°
2026-05-04 09:34 51.46663 -0.44951 92 ft 17 kts 90°
2026-05-04 09:34 51.46664 -0.44764 92 ft 17 kts 90°
2026-05-04 09:34 51.46664 -0.44576 92 ft 17 kts 90°
2026-05-04 09:34 51.46665 -0.44395 92 ft 11 kts 89°
2026-05-04 09:35 51.46665 -0.44281 91 ft 9 kts 90°
2026-05-04 09:35 51.46665 -0.44237 91 ft 0 kts 90°
2026-05-04 09:37 51.46499 -0.44080 94 ft 4 kts 241°
2026-05-04 09:37 51.46494 -0.44120 91 ft 4 kts 263°
2026-05-04 09:38 51.46492 -0.44152 90 ft 2 kts 267°
2026-05-04 09:38 51.46492 -0.44174 91 ft 0 kts 269°
2026-05-04 09:38 51.46491 -0.44433 92 ft 58 kts 270°
2026-05-04 09:39 51.46488 -0.45466 91 ft 125 kts 269°
2026-05-04 09:39 51.46483 -0.47170 94 ft 177 kts 270°
2026-05-04 09:39 51.46485 -0.49248 461 ft 186 kts 271°
2026-05-04 09:39 51.46516 -0.51348 832 ft 197 kts 279°
2026-05-04 09:40 51.47013 -0.53451 1100 ft 209 kts 310°
2026-05-04 09:40 51.47961 -0.55265 1580 ft 217 kts 304°
2026-05-04 09:40 51.48710 -0.57447 1961 ft 233 kts 298°
2026-05-04 09:40 51.49453 -0.59863 2374 ft 244 kts 297°
2026-05-04 09:41 51.50217 -0.62338 2916 ft 251 kts 297°
2026-05-04 09:42 51.61324 -0.68759 6961 ft 277 kts 355°
2026-05-04 09:43 51.63266 -0.68972 7529 ft 281 kts 355°
2026-05-04 09:43 51.65235 -0.69179 8110 ft 285 kts 358°
2026-05-04 09:43 51.67204 -0.68735 8586 ft 288 kts 18°
2026-05-04 09:43 51.69095 -0.67612 9155 ft 292 kts 20°
2026-05-04 09:44 51.71007 -0.66439 9756 ft 295 kts 20°
2026-05-04 09:44 51.72937 -0.65248 10297 ft 300 kts 20°
2026-05-04 09:44 51.74942 -0.64007 10488 ft 319 kts 20°
2026-05-04 09:46 51.91683 -0.60631 13623 ft 387 kts 324°
2026-05-04 09:46 51.93959 -0.63066 14050 ft 395 kts 326°
2026-05-04 09:46 51.96327 -0.65395 14026 ft 399 kts 328°
2026-05-04 09:47 51.98727 -0.67638 14030 ft 397 kts 329°
2026-05-04 09:47 52.01129 -0.69835 14028 ft 395 kts 329°
2026-05-04 09:49 52.18162 -0.85322 17384 ft 412 kts 329°
2026-05-04 09:49 52.20646 -0.87596 18068 ft 417 kts 329°
2026-05-04 09:49 52.23188 -0.89926 18705 ft 421 kts 329°
2026-05-04 09:51 52.38835 -1.04338 22379 ft 442 kts 328°
2026-05-04 09:51 52.41522 -1.06826 22962 ft 445 kts 328°
2026-05-04 09:51 52.44221 -1.09327 23538 ft 448 kts 328°
2026-05-04 09:51 52.46945 -1.11855 24005 ft 451 kts 328°
2026-05-04 09:52 52.49688 -1.14404 24464 ft 454 kts 328°
2026-05-04 09:52 52.51510 -1.16100 24756 ft 456 kts 328°
2026-05-04 09:52 52.55222 -1.19558 25369 ft 460 kts 329°
2026-05-04 09:52 52.57066 -1.21279 25664 ft 462 kts 329°
2026-05-04 09:53 52.59875 -1.23904 26097 ft 465 kts 329°
2026-05-04 09:53 52.63618 -1.27407 26654 ft 469 kts 329°
2026-05-04 09:53 52.66464 -1.30075 27066 ft 472 kts 329°
2026-05-04 09:53 52.68400 -1.31892 27343 ft 474 kts 329°
2026-05-04 09:54 52.71269 -1.34589 27732 ft 477 kts 329°
2026-05-04 09:54 52.74160 -1.37311 28166 ft 480 kts 329°
2026-05-04 09:54 52.77031 -1.40021 28522 ft 482 kts 331°
2026-05-04 09:54 52.79944 -1.42773 28898 ft 484 kts 331°
2026-05-04 09:55 52.82877 -1.45546 29292 ft 486 kts 331°
2026-05-04 09:55 52.85817 -1.48328 29630 ft 488 kts 331°
2026-05-04 09:55 52.88761 -1.51122 29994 ft 488 kts 331°
2026-05-04 09:55 52.91702 -1.53919 30452 ft 486 kts 332°
2026-05-04 09:56 52.94634 -1.56713 30884 ft 484 kts 332°
2026-05-04 09:56 52.97553 -1.59495 31240 ft 483 kts 332°
2026-05-04 09:56 53.00470 -1.62280 31559 ft 483 kts 333°
2026-05-04 09:56 53.03377 -1.65059 31991 ft 480 kts 333°
2026-05-04 09:57 53.06330 -1.67617 32353 ft 477 kts 338°
2026-05-04 09:57 53.09411 -1.69668 32630 ft 476 kts 342°
2026-05-04 09:57 53.12482 -1.71535 32886 ft 477 kts 342°
2026-05-04 09:57 53.15601 -1.73408 33175 ft 477 kts 342°
2026-05-04 09:58 53.18723 -1.75292 33486 ft 476 kts 342°
2026-05-04 09:58 53.21871 -1.77213 33788 ft 476 kts 341°
2026-05-04 09:58 53.24984 -1.79133 33990 ft 478 kts 342°
2026-05-04 10:00 53.49604 -1.94564 34081 ft 470 kts 342°
2026-05-04 10:04 53.92360 -2.22658 34079 ft 467 kts 342°
2026-05-04 10:04 53.98383 -2.26782 34062 ft 466 kts 342°
2026-05-04 10:05 54.04288 -2.31345 34076 ft 468 kts 336°
2026-05-04 10:05 54.09985 -2.36729 34069 ft 469 kts 335°
2026-05-04 10:06 54.15674 -2.42151 34070 ft 468 kts 335°
2026-05-04 10:06 54.21384 -2.47557 34083 ft 469 kts 335°
2026-05-04 10:08 54.41306 -2.66446 34088 ft 467 kts 334°
2026-05-04 10:08 54.46983 -2.71869 34072 ft 466 kts 334°
2026-05-04 10:09 54.52634 -2.77284 34053 ft 464 kts 334°
2026-05-04 10:09 54.58263 -2.82696 34073 ft 463 kts 334°
2026-05-04 10:10 54.63840 -2.88075 34077 ft 461 kts 334°
2026-05-04 10:10 54.69436 -2.93489 34072 ft 461 kts 334°
2026-05-04 10:11 54.75028 -2.98915 34074 ft 460 kts 333°
2026-05-04 10:11 54.80537 -3.04542 34046 ft 462 kts 327°
2026-05-04 10:12 54.85461 -3.11738 34052 ft 466 kts 316°
2026-05-04 10:12 54.89805 -3.20000 34075 ft 466 kts 315°
2026-05-04 10:13 54.94135 -3.28401 34067 ft 466 kts 315°
2026-05-04 10:13 54.98477 -3.36794 34070 ft 466 kts 315°
2026-05-04 10:14 55.02821 -3.45173 34050 ft 466 kts 315°
2026-05-04 10:16 55.20135 -3.78787 34054 ft 466 kts 314°
2026-05-04 10:16 55.24452 -3.87244 34046 ft 465 kts 314°
2026-05-04 10:17 55.28753 -3.95700 34052 ft 464 kts 314°
2026-05-04 10:19 55.45801 -4.29510 34086 ft 461 kts 313°
2026-05-04 10:19 55.50009 -4.37929 34075 ft 460 kts 313°
2026-05-04 10:20 55.54230 -4.46405 34068 ft 459 kts 313°
2026-05-04 10:20 55.58438 -4.54882 34063 ft 459 kts 313°
2026-05-04 10:21 55.62641 -4.63381 34064 ft 459 kts 313°
2026-05-04 10:21 55.66833 -4.71889 34072 ft 459 kts 313°
2026-05-04 10:22 55.73121 -4.84706 34068 ft 458 kts 312°
2026-05-04 10:23 55.77292 -4.93244 34069 ft 457 kts 312°
2026-05-04 10:25 55.93805 -5.27354 34073 ft 455 kts 311°
2026-05-04 10:25 55.97932 -5.35956 34074 ft 456 kts 311°
2026-05-04 10:26 56.02058 -5.44587 34072 ft 456 kts 311°
2026-05-04 10:26 56.06182 -5.53242 34079 ft 457 kts 311°
2026-05-04 10:27 56.10300 -5.61919 34070 ft 458 kts 311°
2026-05-04 10:27 56.14420 -5.70630 34084 ft 458 kts 311°
2026-05-04 10:28 56.18503 -5.79294 34087 ft 457 kts 311°
2026-05-04 10:28 56.22593 -5.88005 34078 ft 455 kts 311°
2026-05-04 10:29 56.26657 -5.96692 34067 ft 452 kts 310°
2026-05-04 10:29 56.30694 -6.05353 34073 ft 450 kts 310°
2026-05-04 10:30 56.34708 -6.13996 34084 ft 449 kts 310°
2026-05-04 10:30 56.38695 -6.22611 34073 ft 450 kts 310°
2026-05-04 10:31 56.42700 -6.31295 34091 ft 450 kts 310°
2026-05-04 10:32 56.56673 -6.61845 34080 ft 449 kts 310°
2026-05-04 10:33 56.60647 -6.70605 34072 ft 449 kts 309°
2026-05-04 10:33 56.64607 -6.79365 34080 ft 449 kts 309°
2026-05-04 10:34 56.68561 -6.88145 34066 ft 448 kts 309°
2026-05-04 10:34 56.72490 -6.96901 34076 ft 446 kts 309°
2026-05-04 10:35 56.76406 -7.05660 34060 ft 445 kts 309°
2026-05-04 10:35 56.80312 -7.14429 34058 ft 445 kts 309°
2026-05-04 10:36 56.84180 -7.23145 34057 ft 445 kts 308°
2026-05-04 10:36 56.88070 -7.31942 34072 ft 445 kts 308°
2026-05-04 10:37 56.91961 -7.40775 34056 ft 446 kts 308°
2026-05-04 10:37 56.95843 -7.49619 34073 ft 445 kts 308°
2026-05-04 10:39 57.09370 -7.80691 34045 ft 444 kts 307°
2026-05-04 10:40 57.13210 -7.89587 34064 ft 444 kts 307°
2026-05-04 10:40 57.16399 -7.97000 34046 ft 444 kts 307°
2026-05-04 10:41 57.20223 -8.05918 34045 ft 443 kts 307°
2026-05-04 10:41 57.24652 -8.16291 34045 ft 442 kts 307°
2026-05-04 10:42 57.27835 -8.23771 34039 ft 441 kts 307°
2026-05-04 10:42 57.31599 -8.32650 34046 ft 441 kts 307°
2026-05-04 10:43 57.35381 -8.41602 34037 ft 441 kts 306°
2026-05-04 10:45 57.50359 -8.77392 34040 ft 437 kts 306°
2026-05-04 10:45 57.54070 -8.86343 34036 ft 437 kts 306°
2026-05-04 10:46 57.57773 -8.95308 34037 ft 437 kts 305°
2026-05-04 10:46 57.61480 -9.04316 34060 ft 437 kts 305°
2026-05-04 10:47 57.65175 -9.13329 34033 ft 437 kts 304°
2026-05-04 10:47 57.68854 -9.22337 34031 ft 436 kts 304°
2026-05-04 10:49 57.83466 -9.58457 34037 ft 434 kts 304°
2026-05-04 10:50 57.87103 -9.67532 34038 ft 435 kts 304°
2026-05-04 10:52 58.01749 -10.03698 34025 ft 438 kts 309°
2026-05-04 10:52 58.05906 -10.12105 34030 ft 438 kts 309°
2026-05-04 10:54 58.22484 -10.46076 34021 ft 438 kts 308°
2026-05-04 10:56 58.38896 -10.80313 34022 ft 439 kts 308°
2026-05-04 10:57 58.42997 -10.88946 34023 ft 439 kts 308°
2026-05-04 10:57 58.47088 -10.97592 34022 ft 439 kts 308°
2026-05-04 10:58 58.51181 -11.06273 34027 ft 439 kts 308°
2026-05-04 10:58 58.55263 -11.14965 34064 ft 439 kts 308°
2026-05-04 10:59 58.59344 -11.23687 34032 ft 438 kts 308°
2026-05-04 10:59 58.63372 -11.32327 34023 ft 437 kts 308°
2026-05-04 11:00 58.67422 -11.41050 34014 ft 436 kts 308°
2026-05-04 11:02 58.83486 -11.75971 34038 ft 436 kts 308°
2026-05-04 11:05 59.13428 -12.42502 34030 ft 438 kts 308°
2026-05-04 11:06 59.17388 -12.51444 34026 ft 438 kts 308°
2026-05-04 11:06 59.21360 -12.60462 34027 ft 438 kts 308°
2026-05-04 11:10 59.49068 -13.24287 34042 ft 439 kts 308°
2026-05-04 11:12 59.64809 -13.61342 34039 ft 441 kts 308°
2026-05-04 11:12 59.68706 -13.70607 34038 ft 440 kts 308°
2026-05-04 11:13 59.72616 -13.79942 34048 ft 440 kts 308°
2026-05-04 11:13 59.76519 -13.89298 34059 ft 440 kts 308°
2026-05-04 11:14 59.80411 -13.98663 34046 ft 439 kts 307°
2026-05-04 11:16 59.95808 -14.36096 34053 ft 436 kts 307°
2026-05-04 11:16 59.99634 -14.45492 34047 ft 436 kts 307°
2026-05-04 11:17 60.03453 -14.54909 34051 ft 435 kts 307°
2026-05-04 11:19 60.18576 -14.92581 34058 ft 434 kts 307°
2026-05-04 11:19 60.22357 -15.02097 34055 ft 435 kts 307°
2026-05-04 11:20 60.26130 -15.11629 34051 ft 434 kts 307°
2026-05-04 11:20 60.29883 -15.21152 34053 ft 434 kts 307°
2026-05-04 11:22 60.44766 -15.59304 34073 ft 432 kts 306°
2026-05-04 11:23 60.48470 -15.68897 34063 ft 431 kts 306°
2026-05-04 11:25 60.61344 -16.02555 34059 ft 432 kts 306°
2026-05-04 11:25 60.65023 -16.12264 34058 ft 433 kts 306°
2026-05-04 11:27 60.80896 -16.54627 34065 ft 433 kts 306°
2026-05-04 11:28 60.84539 -16.64458 34065 ft 433 kts 306°
2026-05-04 11:28 60.88171 -16.74303 34096 ft 433 kts 306°
2026-05-04 11:29 60.91799 -16.84179 34072 ft 433 kts 306°
2026-05-04 11:29 60.95416 -16.94068 34070 ft 432 kts 306°
2026-05-04 11:33 61.20407 -17.63569 34082 ft 427 kts 305°
2026-05-04 11:33 61.23917 -17.73498 34083 ft 426 kts 305°
2026-05-04 11:34 61.27417 -17.83446 34088 ft 427 kts 305°
2026-05-04 11:34 61.30921 -17.93447 34097 ft 428 kts 304°
2026-05-04 11:35 61.34422 -18.03482 34120 ft 429 kts 304°
2026-05-04 11:35 61.37920 -18.13552 34098 ft 428 kts 304°
2026-05-04 11:36 61.41382 -18.23560 34095 ft 427 kts 304°
2026-05-04 11:36 61.44852 -18.33637 34106 ft 427 kts 304°
2026-05-04 11:37 61.48306 -18.43712 34106 ft 426 kts 304°
2026-05-04 11:37 61.51755 -18.53816 34109 ft 426 kts 304°
2026-05-04 11:38 61.55189 -18.63920 34107 ft 425 kts 304°
2026-05-04 11:38 61.58593 -18.73980 34115 ft 425 kts 304°
2026-05-04 11:39 61.62011 -18.84124 34119 ft 425 kts 304°
2026-05-04 11:41 61.73881 -19.19711 34129 ft 424 kts 303°
2026-05-04 11:41 61.77261 -19.29944 34164 ft 424 kts 303°
2026-05-04 11:42 61.80633 -19.40200 34138 ft 424 kts 303°
2026-05-04 11:42 61.83994 -19.50468 34138 ft 424 kts 303°
2026-05-04 11:43 61.87343 -19.60744 34138 ft 423 kts 303°
2026-05-04 11:43 61.90677 -19.71021 34100 ft 423 kts 303°
2026-05-04 11:44 61.94000 -19.81307 34131 ft 422 kts 303°
2026-05-04 11:44 61.97321 -19.91629 34144 ft 423 kts 303°
2026-05-04 11:45 62.00659 -20.01855 34158 ft 425 kts 306°
2026-05-04 11:45 62.04307 -20.11763 34153 ft 425 kts 306°
2026-05-04 11:46 62.07986 -20.21672 34149 ft 426 kts 306°
2026-05-04 11:46 62.11653 -20.31626 34154 ft 426 kts 306°
2026-05-04 11:47 62.15299 -20.41597 34166 ft 426 kts 306°
2026-05-04 11:47 62.18935 -20.51598 34162 ft 425 kts 306°
2026-05-04 11:48 62.22562 -20.61617 34180 ft 426 kts 306°
2026-05-04 11:48 62.26179 -20.71655 34168 ft 425 kts 306°
2026-05-04 11:49 62.29791 -20.81722 34162 ft 425 kts 306°
2026-05-04 11:49 62.33364 -20.91724 34162 ft 424 kts 306°
2026-05-04 11:50 62.36950 -21.01808 34167 ft 424 kts 306°
2026-05-04 11:50 62.40534 -21.11930 34176 ft 425 kts 305°
2026-05-04 11:51 62.44112 -21.22081 34209 ft 425 kts 305°
2026-05-04 11:51 62.47694 -21.32289 34189 ft 426 kts 305°
2026-05-04 11:52 62.51271 -21.42526 34182 ft 427 kts 305°
2026-05-04 11:52 62.54848 -21.52812 34183 ft 427 kts 305°
2026-05-04 11:53 62.58414 -21.63111 34182 ft 427 kts 305°
2026-05-04 11:53 62.61949 -21.73366 34182 ft 426 kts 305°
2026-05-04 11:55 62.76062 -22.14781 34187 ft 424 kts 304°
2026-05-04 11:56 62.79559 -22.25161 34194 ft 424 kts 304°
2026-05-04 11:56 62.83048 -22.35563 34199 ft 424 kts 304°
2026-05-04 11:57 62.86508 -22.45926 34199 ft 424 kts 304°
2026-05-04 11:57 62.89986 -22.56391 34199 ft 425 kts 304°
2026-05-04 11:58 62.93456 -22.66882 34204 ft 425 kts 304°
2026-05-04 11:58 62.96923 -22.77409 34207 ft 425 kts 304°
2026-05-04 11:59 63.00381 -22.87961 34207 ft 425 kts 304°
2026-05-04 11:59 63.03834 -22.98546 34207 ft 425 kts 304°
2026-05-04 12:00 63.07283 -23.09166 34207 ft 425 kts 304°
2026-05-04 12:00 63.10719 -23.19797 34216 ft 425 kts 304°
2026-05-04 12:01 63.14144 -23.30443 34188 ft 424 kts 303°
2026-05-04 12:02 63.26035 -23.67799 34215 ft 424 kts 303°
2026-05-04 12:03 63.29395 -23.78467 34218 ft 424 kts 303°
2026-05-04 12:03 63.32773 -23.89243 34221 ft 425 kts 303°
2026-05-04 12:04 63.36149 -24.00063 34223 ft 425 kts 303°
2026-05-04 12:04 63.39515 -24.10905 34220 ft 425 kts 303°
2026-05-04 12:05 63.42872 -24.21766 34218 ft 424 kts 303°
2026-05-04 12:05 63.46217 -24.32645 34223 ft 424 kts 303°
2026-05-04 12:06 63.49549 -24.43532 34225 ft 424 kts 303°
2026-05-04 12:06 63.52850 -24.54369 34234 ft 424 kts 302°
2026-05-04 12:07 63.56164 -24.65302 34227 ft 423 kts 302°
2026-05-04 12:07 63.59467 -24.76248 34231 ft 423 kts 302°
2026-05-04 12:08 63.62756 -24.87205 34227 ft 422 kts 302°
2026-05-04 12:08 63.66035 -24.98180 34226 ft 422 kts 302°
2026-05-04 12:09 63.69304 -25.09176 34231 ft 422 kts 302°
2026-05-04 12:09 63.72566 -25.20202 34228 ft 422 kts 302°
2026-05-04 12:10 63.75823 -25.31264 34245 ft 423 kts 302°
2026-05-04 12:10 63.79071 -25.42353 34237 ft 423 kts 302°
2026-05-04 12:11 63.81761 -25.51574 34233 ft 422 kts 302°
2026-05-04 12:11 63.84986 -25.62682 34234 ft 422 kts 302°
2026-05-04 12:12 63.88204 -25.73822 34239 ft 422 kts 301°
2026-05-04 12:12 63.91412 -25.84979 34203 ft 421 kts 301°
2026-05-04 12:14 64.04187 -26.29976 34236 ft 424 kts 301°
2026-05-04 12:15 64.07368 -26.41323 34239 ft 424 kts 301°
2026-05-04 12:15 64.10516 -26.52606 34242 ft 423 kts 301°
2026-05-04 12:16 64.13672 -26.63977 34274 ft 423 kts 301°
2026-05-04 12:16 64.16822 -26.75386 34251 ft 423 kts 301°
2026-05-04 12:17 64.19957 -26.86795 34227 ft 422 kts 301°
2026-05-04 12:17 64.23071 -26.98187 34234 ft 420 kts 301°
2026-05-04 12:18 64.26167 -27.09574 34238 ft 420 kts 301°
2026-05-04 12:18 64.29254 -27.20981 34206 ft 420 kts 300°
2026-05-04 12:19 64.32332 -27.32418 34230 ft 420 kts 300°
2026-05-04 12:19 64.35411 -27.43920 34249 ft 422 kts 300°
2026-05-04 12:20 64.38472 -27.55406 34241 ft 422 kts 300°
2026-05-04 12:20 64.41539 -27.66976 34236 ft 422 kts 300°
2026-05-04 12:21 64.44610 -27.78625 34238 ft 421 kts 300°
2026-05-04 12:21 64.47628 -27.90131 34230 ft 420 kts 300°
2026-05-04 12:22 64.50651 -28.01716 34239 ft 419 kts 300°
2026-05-04 12:22 64.53660 -28.13311 34281 ft 419 kts 300°
2026-05-04 12:23 64.56657 -28.24915 34240 ft 418 kts 299°
2026-05-04 12:23 64.59635 -28.36509 34239 ft 417 kts 299°
2026-05-04 12:24 64.62596 -28.48099 34233 ft 415 kts 299°
2026-05-04 12:24 64.65542 -28.59689 34195 ft 415 kts 299°
2026-05-04 12:25 64.68479 -28.71306 34236 ft 415 kts 299°
2026-05-04 12:25 64.71413 -28.82972 34244 ft 417 kts 299°
2026-05-04 12:26 64.74351 -28.94714 34244 ft 419 kts 298°
2026-05-04 12:26 64.77269 -29.06441 34244 ft 419 kts 298°
2026-05-04 12:27 64.80203 -29.18293 34239 ft 419 kts 298°
2026-05-04 12:27 64.83116 -29.30124 34249 ft 418 kts 298°
2026-05-04 12:28 64.86012 -29.41954 34247 ft 417 kts 298°
2026-05-04 12:28 64.88898 -29.53804 34254 ft 417 kts 298°
2026-05-04 12:29 64.91770 -29.65659 34252 ft 416 kts 298°
2026-05-04 12:29 64.94614 -29.77464 34253 ft 416 kts 298°
2026-05-04 12:30 64.97468 -29.89371 34259 ft 416 kts 298°
2026-05-04 12:30 65.00312 -30.01290 34261 ft 416 kts 298°
2026-05-04 12:31 65.03245 -30.13145 34259 ft 417 kts 299°
2026-05-04 12:31 65.06214 -30.24989 34262 ft 418 kts 298°
2026-05-04 12:32 65.10631 -30.42791 34285 ft 420 kts 298°
2026-05-04 12:33 65.13581 -30.54800 34274 ft 421 kts 298°
2026-05-04 12:33 65.16520 -30.66845 34269 ft 421 kts 298°
2026-05-04 12:34 65.19445 -30.78897 34268 ft 420 kts 298°
2026-05-04 12:34 65.22356 -30.90956 34270 ft 420 kts 298°
2026-05-04 12:35 65.25258 -31.03046 34280 ft 419 kts 297°
2026-05-04 12:35 65.28141 -31.15128 34281 ft 419 kts 297°
2026-05-04 12:36 65.30995 -31.27150 34300 ft 419 kts 297°
2026-05-04 12:36 65.33862 -31.39294 34293 ft 419 kts 297°
2026-05-04 12:37 65.36721 -31.51471 34286 ft 420 kts 297°
2026-05-04 12:37 65.39576 -31.63703 34263 ft 419 kts 297°
2026-05-04 12:38 65.42416 -31.75941 34307 ft 420 kts 297°
2026-05-04 12:38 65.45258 -31.88254 34305 ft 421 kts 297°
2026-05-04 12:39 65.48094 -32.00613 34306 ft 422 kts 296°
2026-05-04 12:39 65.50927 -32.13026 34310 ft 423 kts 296°
2026-05-04 12:40 65.53734 -32.25397 34315 ft 424 kts 296°
2026-05-04 12:40 65.56554 -32.37898 34317 ft 424 kts 296°
2026-05-04 12:41 65.59363 -32.50423 34318 ft 424 kts 296°
2026-05-04 12:41 65.62166 -32.62995 34321 ft 423 kts 296°
2026-05-04 12:42 65.64950 -32.75556 34327 ft 423 kts 296°
2026-05-04 12:42 65.67721 -32.88130 34357 ft 423 kts 296°
2026-05-04 12:43 65.70482 -33.00734 34340 ft 422 kts 296°
2026-05-04 12:43 65.73223 -33.13322 34335 ft 421 kts 296°
2026-05-04 12:44 65.75931 -33.25826 34318 ft 420 kts 295°
2026-05-04 12:44 65.78649 -33.38457 34338 ft 422 kts 295°
2026-05-04 12:45 65.81370 -33.51183 34345 ft 424 kts 295°
2026-05-04 12:45 65.84097 -33.64002 34347 ft 426 kts 295°
2026-05-04 12:46 65.86822 -33.76900 34360 ft 427 kts 296°
2026-05-04 12:46 65.89529 -33.89784 34348 ft 425 kts 295°
2026-05-04 12:47 65.92211 -34.02625 34355 ft 423 kts 295°
2026-05-04 12:47 65.94872 -34.15446 34357 ft 421 kts 295°
2026-05-04 12:48 65.97514 -34.28252 34358 ft 420 kts 295°
2026-05-04 12:48 66.00141 -34.41066 34364 ft 420 kts 295°
2026-05-04 12:49 66.02760 -34.53922 34397 ft 420 kts 295°
2026-05-04 12:49 66.05359 -34.66757 34373 ft 418 kts 295°
2026-05-04 12:50 66.07918 -34.79466 34362 ft 415 kts 295°
2026-05-04 12:50 66.10468 -34.92216 34357 ft 414 kts 295°
2026-05-04 12:51 66.13016 -35.05030 34371 ft 418 kts 295°
2026-05-04 12:51 66.15576 -35.17992 34380 ft 421 kts 295°
2026-05-04 12:52 66.18147 -35.31085 34375 ft 424 kts 295°
2026-05-04 12:52 66.20702 -35.44169 34377 ft 417 kts 294°
2026-05-04 12:53 66.23196 -35.57037 34381 ft 414 kts 294°
2026-05-04 12:53 66.25681 -35.69941 34386 ft 415 kts 294°
2026-05-04 12:54 66.28161 -35.82889 34384 ft 416 kts 294°
2026-05-04 12:54 66.30634 -35.95888 34382 ft 416 kts 294°
2026-05-04 12:55 66.33081 -36.08826 34384 ft 416 kts 294°
2026-05-04 12:55 66.35537 -36.21894 34419 ft 416 kts 294°
2026-05-04 12:56 66.37975 -36.34965 34390 ft 414 kts 294°
2026-05-04 12:56 66.40386 -36.47969 34391 ft 413 kts 293°
2026-05-04 12:57 66.42381 -36.58786 34325 ft 412 kts 293°
2026-05-04 12:57 66.44769 -36.71815 34373 ft 414 kts 293°
2026-05-04 12:58 66.47161 -36.84956 34404 ft 416 kts 293°
2026-05-04 12:58 66.49556 -36.98198 34368 ft 419 kts 293°
2026-05-04 12:59 66.51943 -37.11473 34439 ft 419 kts 293°
2026-05-04 12:59 66.54307 -37.24709 34385 ft 408 kts 293°
2026-05-04 13:00 66.56608 -37.37701 34382 ft 406 kts 293°
2026-05-04 13:00 66.58888 -37.50638 34375 ft 408 kts 292°
2026-05-04 13:01 66.61188 -37.63746 34388 ft 410 kts 292°
2026-05-04 13:01 66.63474 -37.76904 34388 ft 410 kts 292°
2026-05-04 13:02 66.65756 -37.90123 34386 ft 411 kts 292°
2026-05-04 13:02 66.68026 -38.03364 34390 ft 411 kts 292°
2026-05-04 13:03 66.70292 -38.16658 34393 ft 412 kts 292°
2026-05-04 13:03 66.72545 -38.29965 34396 ft 411 kts 292°
2026-05-04 13:04 66.74773 -38.43216 34394 ft 412 kts 292°
2026-05-04 13:04 66.77018 -38.56663 34421 ft 416 kts 291°
2026-05-04 13:05 66.79268 -38.70230 34428 ft 419 kts 291°
2026-05-04 13:05 66.81520 -38.83911 34423 ft 421 kts 291°
2026-05-04 13:06 66.83762 -38.97619 34445 ft 420 kts 291°
2026-05-04 13:06 66.85982 -39.11295 34435 ft 416 kts 291°
2026-05-04 13:07 66.88169 -39.24866 34439 ft 414 kts 291°
2026-05-04 13:07 66.90334 -39.38395 34439 ft 412 kts 291°
2026-05-04 13:08 66.92468 -39.51824 34442 ft 411 kts 291°
2026-05-04 13:08 66.94604 -39.65365 34446 ft 412 kts 291°
2026-05-04 13:09 66.96734 -39.78960 34458 ft 413 kts 290°
2026-05-04 13:09 66.98860 -39.92606 34465 ft 414 kts 290°
2026-05-04 13:10 67.00936 -40.06353 34450 ft 414 kts 288°
2026-05-04 13:10 67.02812 -40.20278 34450 ft 414 kts 287°
2026-05-04 13:11 67.04645 -40.34235 34448 ft 413 kts 287°
2026-05-04 13:11 67.06482 -40.48187 34431 ft 413 kts 287°
2026-05-04 13:12 67.08318 -40.62142 34438 ft 413 kts 287°
2026-05-04 13:12 67.10148 -40.76121 34452 ft 413 kts 287°
2026-05-04 13:13 67.11967 -40.90119 34430 ft 414 kts 287°
2026-05-04 13:13 67.13778 -41.04181 34421 ft 414 kts 287°
2026-05-04 13:14 67.15563 -41.18156 34399 ft 414 kts 287°
2026-05-04 13:14 67.17350 -41.32258 34400 ft 414 kts 287°
2026-05-04 13:15 67.19124 -41.46382 34414 ft 414 kts 287°
2026-05-04 13:15 67.20887 -41.60543 34395 ft 414 kts 286°
2026-05-04 13:16 67.22635 -41.74700 34411 ft 414 kts 286°
2026-05-04 13:16 67.24376 -41.88921 34314 ft 416 kts 286°
2026-05-04 13:17 67.26105 -42.03173 34341 ft 416 kts 286°
2026-05-04 13:17 67.27828 -42.17495 34355 ft 417 kts 285°
2026-05-04 13:18 67.29541 -42.31861 34350 ft 418 kts 285°
2026-05-04 13:18 67.31243 -42.46260 34327 ft 418 kts 285°
2026-05-04 13:19 67.32933 -42.60698 34308 ft 418 kts 285°
2026-05-04 13:19 67.34600 -42.75060 34346 ft 418 kts 285°
2026-05-04 13:20 67.36266 -42.89547 34320 ft 419 kts 285°
2026-05-04 13:20 67.37919 -43.04060 34299 ft 419 kts 285°
2026-05-04 13:21 67.39557 -43.18574 34302 ft 418 kts 285°
2026-05-04 13:21 67.41182 -43.33105 34290 ft 418 kts 285°
2026-05-04 13:22 67.42792 -43.47643 34293 ft 418 kts 285°
2026-05-04 13:22 67.44380 -43.62109 34313 ft 418 kts 285°
2026-05-04 13:23 67.45963 -43.76673 34314 ft 417 kts 285°
2026-05-04 13:23 67.47533 -43.91260 34305 ft 418 kts 284°
2026-05-04 13:24 67.49092 -44.05887 34293 ft 419 kts 284°
2026-05-04 13:24 67.50639 -44.20551 34291 ft 419 kts 284°
2026-05-04 13:25 67.52937 -44.42592 34315 ft 420 kts 284°
2026-05-04 13:25 67.53699 -44.49976 34482 ft 421 kts 284°
2026-05-04 13:25 67.54459 -44.57375 34724 ft 421 kts 284°
2026-05-04 13:26 67.55216 -44.64787 34951 ft 422 kts 284°
2026-05-04 13:26 67.55971 -44.72215 35163 ft 422 kts 284°
2026-05-04 13:26 67.56724 -44.79658 35367 ft 424 kts 284°
2026-05-04 13:26 67.57477 -44.87141 35537 ft 426 kts 284°
2026-05-04 13:27 67.58229 -44.94656 35715 ft 427 kts 284°
2026-05-04 13:27 67.58969 -45.02094 35889 ft 428 kts 284°
2026-05-04 13:27 67.59718 -45.09657 36062 ft 429 kts 284°
2026-05-04 13:27 67.60465 -45.17246 36189 ft 431 kts 284°
2026-05-04 13:28 67.61958 -45.32520 36292 ft 433 kts 284°
2026-05-04 13:28 67.63435 -45.47808 36232 ft 431 kts 283°
2026-05-04 13:29 67.64890 -45.63022 36273 ft 429 kts 283°
2026-05-04 13:29 67.66327 -45.78231 36302 ft 429 kts 283°
2026-05-04 13:30 67.67752 -45.93470 36290 ft 429 kts 283°
2026-05-04 13:30 67.69164 -46.08749 36288 ft 430 kts 283°
2026-05-04 13:31 67.70564 -46.24072 36277 ft 431 kts 283°
2026-05-04 13:31 67.71952 -46.39434 36288 ft 431 kts 283°
2026-05-04 13:32 67.73328 -46.54839 36285 ft 431 kts 283°
2026-05-04 13:32 67.74688 -46.70258 36288 ft 432 kts 282°
2026-05-04 13:33 67.76028 -46.85623 36314 ft 432 kts 282°
2026-05-04 13:33 67.77361 -47.01094 36300 ft 432 kts 282°
2026-05-04 13:34 67.78679 -47.16572 36293 ft 431 kts 282°
2026-05-04 13:34 67.79979 -47.32039 36274 ft 431 kts 282°
2026-05-04 13:35 67.81903 -47.55275 36317 ft 431 kts 282°
2026-05-04 13:36 67.83166 -47.70778 36369 ft 431 kts 282°
2026-05-04 13:36 67.84418 -47.86338 36368 ft 432 kts 281°
2026-05-04 13:37 67.85649 -48.01833 36371 ft 433 kts 281°
2026-05-04 13:37 67.86875 -48.17478 36388 ft 433 kts 281°
2026-05-04 13:38 67.88089 -48.33173 36390 ft 433 kts 281°
2026-05-04 13:38 67.89286 -48.48853 36376 ft 434 kts 281°
2026-05-04 13:39 67.90468 -48.64555 36376 ft 433 kts 281°
2026-05-04 13:39 67.91635 -48.80267 36379 ft 433 kts 281°
2026-05-04 13:40 67.92785 -48.95969 36382 ft 433 kts 281°
2026-05-04 13:40 67.93913 -49.11589 36374 ft 432 kts 280°
2026-05-04 13:41 67.95033 -49.27330 36329 ft 432 kts 280°
2026-05-04 13:41 67.96137 -49.43049 36339 ft 432 kts 280°
2026-05-04 13:42 67.97770 -49.66743 36345 ft 435 kts 280°
2026-05-04 13:42 67.98666 -49.79952 36338 ft 436 kts 279°
2026-05-04 13:43 67.99422 -49.95972 36320 ft 436 kts 271°
2026-05-04 13:43 67.99179 -50.12147 36316 ft 438 kts 264°
2026-05-04 13:44 67.98157 -50.28165 36314 ft 438 kts 261°
2026-05-04 13:44 67.97029 -50.44085 36304 ft 437 kts 261°
2026-05-04 13:45 67.95901 -50.59973 36311 ft 436 kts 261°
2026-05-04 13:45 67.94785 -50.75730 36281 ft 435 kts 261°
2026-05-04 13:46 67.93655 -50.91563 36310 ft 436 kts 261°
2026-05-04 13:46 67.92505 -51.07455 36306 ft 438 kts 260°
2026-05-04 13:47 67.91335 -51.23394 36308 ft 440 kts 260°
2026-05-04 13:47 67.90146 -51.39358 36308 ft 441 kts 260°
2026-05-04 13:48 67.88940 -51.55325 36311 ft 441 kts 260°
2026-05-04 13:48 67.87716 -51.71301 36307 ft 441 kts 260°
2026-05-04 13:49 67.86479 -51.87239 36309 ft 440 kts 259°
2026-05-04 13:49 67.85229 -52.03132 36302 ft 440 kts 259°
2026-05-04 13:50 67.83969 -52.18927 36306 ft 441 kts 259°
2026-05-04 13:50 67.82686 -52.34809 36311 ft 442 kts 259°
2026-05-04 13:51 67.81383 -52.50730 36303 ft 443 kts 259°